Cloud_Cover
64 48 48 80 80 88 88 88 48 64 88 88 92 92 92 92 92 92 92 92 92 80 76 76 80 88 88 88 92 92 92 92 92 92 92 88 80 80 76 68 80 88 92 92 80 80 88 92 88 88 88 88 80 88 92 92 92 92 92 92 92 92 92 92 92 92 92 92 88
80 80 68 44 48 64 76 88 80 76 76 88 92 92 92 92 88 92 92 92 92 92 88 68 68 68 68 76 88 92 92 92 92 92 92 80 92 92 80 48 68 80 88 88 80 80 88 88 88 88 88 88 88 92 88 80 92 92 92 92 92 92 92 92 92 92 92 92 80
88 88 80 56 64 64 64 76 88 88 88 80 88 92 92 92 92 92 92 92 92 92 92 92 88 88 80 76 68 80 92 92 92 92 92 80 92 92 92 80 92 92 92 88 88 88 88 80 88 88 88 88 88 88 92 88 80 88 92 92 88 88 88 88 88 92 92 92 92
88 88 88 80 56 68 88 88 88 88 80 64 48 64 80 92 92 92 88 92 92 92 92 92 92 92 92 88 88 92 92 92 100 92 92 92 92 92 92 92 92 92 92 92 92 88 88 92 88 88 88 88 88 88 88 92 76 76 76 76 68 68 80 88 80 80 88 80 88
88 88 88 88 64 68 80 64 80 80 76 88 88 88 88 80 80 80 88 92 92 92 92 92 92 92 92 92 92 88 80 92 92 92 92 92 88 88 88 88 92 92 92 92 92 92 92 92 92 88 88 88 92 88 88 88 80 76 76 76 68 64 64 76 80 88 88 88 92
80 80 80 80 56 36 44 88 88 76 68 88 88 76 64 76 80 88 88 88 80 88 92 92 92 88 88 88 92 88 80 80 92 92 92 92 88 88 80 80 80 80 76 68 88 92 92 92 92 92 88 92 88 88 88 88 88 80 88 88 76 64 56 56 80 88 88 92 92
80 80 80 80 80 88 80 68 88 88 88 88 88 88 76 36 64 76 68 68 68 80 92 92 92 92 92 88 92 92 92 88 92 92 88 88 88 92 92 80 80 76 68 56 76 88 92 92 92 92 92 88 88 88 88 88 80 80 80 88 88 68 48 48 68 88 92 92 92
80 80 80 80 80 88 88 88 88 88 88 88 88 88 88 88 68 64 64 64 64 76 88 92 92 92 88 88 92 92 88 88 88 80 68 68 76 80 88 92 92 80 68 64 68 80 92 92 92 92 92 92 92 88 88 88 80 80 88 88 88 76 56 36 48 64 76 92 92
80 80 80 80 80 88 88 88 88 88 88 88 88 88 80 76 48 44 48 56 68 76 88 92 92 92 92 88 88 88 88 88 88 80 76 76 88 76 68 92 92 88 76 64 56 76 92 88 88 88 88 92 92 92 92 92 88 88 88 88 88 80 64 32 64 76 76 80 92
80 80 80 80 80 80 80 88 88 88 88 88 88 80 64 32 24 24 20 0 56 80 88 92 88 80 80 88 92 88 88 92 92 88 88 92 88 80 68 64 88 92 88 68 68 80 88 92 92 80 80 80 92 92 92 92 92 92 88 88 88 80 64 36 56 68 76 80 80
80 80 80 80 80 80 80 88 80 88 92 92 92 92 92 88 56 32 20 12 56 80 92 92 80 76 76 76 88 92 92 92 92 92 92 92 92 88 76 44 68 80 76 48 56 68 88 92 88 80 76 80 88 88 92 92 92 92 92 92 92 88 76 48 36 48 68 76 80
88 88 88 80 80 80 80 80 80 88 92 88 92 92 92 92 92 92 88 68 88 92 92 92 80 76 76 64 76 80 88 92 92 92 88 88 92 92 88 80 76 80 76 44 36 48 68 68 68 68 68 68 76 76 80 92 92 92 92 92 92 92 92 92 88 80 76 80 80
88 88 88 88 88 76 68 80 88 92 92 92 92 92 92 92 92 92 92 92 92 92 92 92 80 80 80 64 68 76 80 88 92 88 76 76 88 92 88 80 88 92 80 44 44 56 68 76 64 48 44 48 64 68 80 88 88 92 92 92 92 92 92 92 92 92 92 88 80
88 88 88 88 80 80 88 88 92 92 92 92 92 92 92 92 92 92 92 92 92 92 88 80 76 80 80 76 80 80 80 88 92 88 76 76 88 92 88 76 88 92 88 64 64 76 88 88 88 48 12 12 24 48 68 76 88 88 80 88 92 92 92 92 92 92 92 92 88
88 88 88 88 88 92 92 88 92 92 92 92 92 92 88 88 92 92 92 92 92 92 88 68 88 92 88 92 92 88 88 88 92 92 92 92 92 92 92 88 88 92 92 88 88 88 92 88 76 36 8 0 0 12 24 36 76 80 80 80 80 88 88 92 92 100 92 92 92
88 88 92 92 92 92 92 92 92 92 92 92 92 88 88 80 88 92 92 92 80 80 80 68 88 92 92 92 92 92 88 88 92 92 92 92 92 92 92 88 92 92 92 92 92 92 92 92 80 48 12 0 0 8 8 12 32 56 76 88 88 76 76 88 92 92 100 100 92
88 88 92 92 92 92 92 92 92 92 92 92 92 92 80 64 80 88 88 80 76 76 80 76 88 92 92 92 92 92 88 88 88 92 92 92 92 92 92 88 88 92 92 92 92 92 92 88 92 76 44 8 8 8 8 8 8 20 36 56 88 88 76 76 92 92 100 100 92
88 88 92 92 92 92 92 92 92 92 92 92 92 92 80 48 68 76 80 64 76 80 88 76 88 92 92 92 92 92 88 80 88 92 92 92 92 92 92 92 92 92 92 92 92 92 92 80 92 88 76 48 48 24 8 8 8 12 12 24 64 88 92 80 92 92 92 92 92
88 92 92 92 92 92 92 92 92 92 92 92 92 88 80 80 80 76 68 68 68 76 80 68 80 88 92 92 92 92 92 88 88 88 92 92 92 92 92 92 92 92 92 92 92 92 92 88 80 88 92 88 92 68 36 0 8 8 12 12 36 68 92 92 92 92 92 92 92
92 92 92 92 92 92 92 92 92 92 92 92 92 92 88 92 92 80 68 68 68 76 80 68 76 88 92 92 92 92 88 80 80 88 92 92 92 92 92 92 92 92 92 92 92 92 88 92 80 80 88 92 92 92 80 56 12 0 8 12 20 48 76 92 92 88 88 92 92
92 92 92 88 92 92 92 92 92 92 92 92 92 92 92 92 92 88 88 80 76 76 80 76 80 88 92 92 92 92 88 68 80 88 92 92 92 92 92 92 92 92 92 92 92 88 80 92 92 88 88 92 92 92 92 92 68 36 12 12 20 44 76 92 88 80 80 76 92
92 92 92 80 88 92 92 92 92 92 92 92 92 92 92 92 92 92 92 92 88 80 80 88 88 92 92 92 92 92 88 68 68 80 92 92 92 92 92 92 92 92 92 92 92 80 76 88 88 88 88 88 92 92 88 92 92 80 68 68 68 76 88 92 88 80 76 76 92
92 92 92 88 92 92 92 92 92 92 92 92 92 92 92 92 92 92 92 92 92 92 88 92 92 92 92 92 92 92 88 76 80 88 88 92 92 92 92 92 92 92 92 92 76 76 76 80 92 92 92 92 92 92 88 92 92 92 92 92 92 92 92 92 92 80 76 64 64
92 92 92 92 92 92 92 92 92 92 92 92 92 92 92 92 92 92 92 92 92 92 92 92 92 92 92 92 92 92 92 92 92 92 92 92 92 92 92 92 92 92 92 92 92 76 68 80 92 92 92 92 92 92 88 88 80 88 92 92 92 92 92 92 92 92 80 64 56
92 92 92 92 92 92 92 92 92 92 92 92 92 92 92 92 92 92 92 92 92 92 92 92 92 92 92 92 92 92 92 92 92 92 92 92 92 92 92 92 92 92 92 92 92 88 76 80 92 92 92 92 92 92 92 88 80 88 92 92 92 92 92 92 92 92 88 76 56
92 92 92 92 92 92 92 92 92 92 92 92 92 92 92 92 92 92 92 92 92 92 92 92 92 92 92 92 92 92 92 92 92 92 92 92 92 92 92 92 92 92 92 92 92 92 92 92 92 92 92 92 92 92 88 80 88 92 92 92 92 92 92 92 92 92 92 92 88
92 92 92 92 92 92 92 92 92 92 92 92 92 92 92 92 92 92 92 92 92 92 92 92 92 92 92 92 92 92 92 92 92 92 92 92 92 92 92 92 92 92 92 92 92 92 92 92 92 92 92 92 92 92 92 88 92 92 92 92 92 92 92 92 92 92 92 92 92
92 92 92 92 92 92 92 92 92 92 92 92 92 92 92 92 92 92 92 92 92 92 92 92 92 92 92 92 92 92 92 92 92 92 92 92 92 92 92 92 92 92 92 92 92 92 92 92 92 92 92 92 88 88 92 92 92 92 92 92 92 92 92 92 92 88 80 64 88
92 92 92 92 92 92 92 92 92 92 92 92 92 92 92 92 92 92 92 92 92 92 92 92 92 92 92 92 92 92 92 92 92 92 92 92 92 92 92 92 92 92 92 92 92 92 92 92 92 92 92 92 92 92 92 92 92 92 92 92 92 92 92 92 92 88 88 80 76
88 88 92 92 92 92 92 92 92 92 92 92 92 92 92 92 92 92 92 92 92 92 92 92 92 92 92 92 92 92 92 92 92 92 92 92 92 92 92 92 92 92 92 92 92 92 92 92 92 92 92 92 92 92 92 92 92 92 92 92 92 92 92 92 92 92 92 92 92
92 92 92 92 92 92 92 92 92 92 92 92 92 92 92 92 92 92 92 88 88 88 92 92 92 92 92 92 92 92 92 92 92 92 92 92 92 92 92 92 92 92 92 92 92 92 92 92 92 92 92 92 92 92 92 92 92 92 92 92 92 92 92 92 92 92 92 92 88
92 92 92 92 92 92 92 92 92 92 88 92 92 92 92 92 92 92 92 88 88 88 92 92 92 92 92 92 92 92 92 92 92 92 92 92 92 92 92 92 92 92 92 92 92 92 92 92 92 92 92 92 92 92 92 92 92 92 92 92 92 92 92 92 92 92 92 92 80
92 92 92 92 92 92 92 92 92 92 92 92 92 92 92 92 88 88 92 92 92 92 92 92 92 92 92 92 92 92 92 92 92 92 92 92 92 92 92 92 92 92 92 92 92 92 92 92 92 92 92 92 92 92 92 92 92 92 92 92 92 92 92 92 92 92 92 92 80
92 92 92 80 92 92 92 92 92 92 92 92 92 92 92 92 88 88 88 80 88 92 92 92 92 92 92 92 92 92 92 92 92 92 92 92 92 92 92 92 92 92 92 92 92 92 92 92 92 92 92 92 92 92 92 92 92 92 92 92 92 92 92 92 92 92 92 88 80
88 92 88 76 80 88 92 92 92 92 92 92 92 92 92 92 92 92 92 92 88 80 80 88 92 92 92 92 92 92 92 92 92 92 92 92 92 92 92 92 92 92 92 92 92 92 92 92 92 92 92 92 92 92 92 92 92 92 92 92 92 92 92 92 92 92 92 88 80
92 88 88 80 76 80 88 88 88 92 92 92 92 92 92 92 92 92 92 92 92 88 88 88 88 88 92 92 92 92 92 92 92 92 92 92 92 92 92 92 92 92 92 92 92 92 92 92 92 92 92 92 92 92 92 92 92 92 92 92 92 92 92 92 92 92 92 88 88
92 92 92 92 88 88 80 68 88 92 92 92 92 92 92 92 92 92 92 92 92 92 92 88 88 88 88 92 92 92 92 92 92 92 92 92 92 92 92 92 92 92 92 92 92 92 92 92 92 92 92 92 92 92 92 92 92 92 92 92 92 92 92 92 92 92 88 88 88
88 92 92 92 92 92 88 76 88 92 92 92 92 92 92 92 92 92 92 92 92 92 92 88 88 88 80 88 92 92 92 92 92 92 92 92 92 92 92 92 92 92 92 92 92 92 92 92 92 92 92 92 92 92 92 92 92 92 92 92 92 92 92 92 88 80 88 88 88
92 88 88 88 88 88 88 88 92 92 92 92 92 92 92 92 88 88 88 88 92 92 92 92 88 88 88 88 92 92 92 92 92 92 92 92 92 92 92 92 92 92 92 92 92 92 92 92 92 92 92 92 92 92 92 92 92 92 92 92 92 92 92 92 88 88 88 92 92
88 88 80 80 80 80 80 88 92 92 92 92 92 92 92 92 88 80 80 76 76 76 80 80 88 80 80 80 80 80 80 80 80 80 88 92 92 92 92 92 92 92 92 92 92 92 92 92 92 92 92 92 92 92 92 92 92 92 92 92 92 92 92 92 92 92 92 92 92
88 88 88 88 88 88 88 88 88 88 88 92 88 88 88 92 92 88 76 68 64 64 64 64 68 68 68 68 68 68 68 68 68 76 80 88 92 92 92 92 92 92 92 92 92 92 92 92 92 92 92 92 92 92 92 92 92 92 92 92 92 92 92 92 92 92 92 92 92